DateTime,DeltaTime,Roll,TargetAngle,Position,Power
2022-06-03 10:43:37.041,0,-0.83,-5.97,2,25.41
2022-06-03 10:43:37.155,0.114000588655472,-0.57,-4.31,4,24.7
2022-06-03 10:43:37.269,0.228001177310944,-1.07,-9.48,5,61.99
2022-06-03 10:43:37.384,0.342997536063194,-0.69,-4.24,9,28.55
2022-06-03 10:43:37.495,0.454000756144524,-0.69,-5.84,9,62.98
2022-06-03 10:43:37.609,0.568001344799995,-0.85,-7.17,7,61.42
2022-06-03 10:43:37.724,0.682997703552246,-0.83,-6.35,3,45.56
2022-06-03 10:43:37.840,0.798999890685081,-0.77,-5.92,2,27.11
2022-06-03 10:43:37.954,0.913000479340553,-0.73,-5.87,0,28.52
2022-06-03 10:43:38.068,1.02700106799603,-0.79,-6.54,2,23.94
2022-06-03 10:43:38.183,1.14199742674828,-0.76,-5.96,4,33.39
2022-06-03 10:43:38.298,1.25699378550053,-0.96,-7.74,6,51.17
2022-06-03 10:43:38.412,1.370994374156,-1.19,-8.73,9,58.29
2022-06-03 10:43:38.527,1.48600079119205,-0.32,-0.71,10,29.25
2022-06-03 10:43:38.641,1.60000137984753,-0.16,-3.26,5,54.51
2022-06-03 10:43:38.757,1.71599350869656,-0.4,-5.83,4,36.77
2022-06-03 10:43:38.872,1.83099992573261,-0.59,-6.34,1,38.53
2022-06-03 10:43:38.986,1.94500051438808,-0.59,-5.54,0,21.09
2022-06-03 10:43:39.101,2.05999687314034,-0.47,-4.52,1,16.56
2022-06-03 10:43:39.215,2.17399746179581,-0.49,-5.23,3,28.18
2022-06-03 10:43:39.325,2.28399485349655,0.11,-0.27,6,11.7
2022-06-03 10:43:39.441,2.39999704062939,-0.73,-9.75,8,78.34
2022-06-03 10:43:39.555,2.51399762928486,-0.41,-3.4,9,36.39
2022-06-03 10:43:39.669,2.62799821794033,-0.07,-2.16,7,41.9
2022-06-03 10:43:39.784,2.74299457669258,0.11,-2.13,4,33.12
2022-06-03 10:43:39.899,2.85800099372864,0.1,-3.01,1,25.98
2022-06-03 10:43:40.014,2.97299735248089,0.11,-2.84,1,13.55
2022-06-03 10:43:40.129,3.08799371123314,0.19,-2.3,1,15.36
2022-06-03 10:43:40.243,3.20199429988861,-0.0499999999999999,-4.53,3,27.51
2022-06-03 10:43:40.358,3.31700071692467,0.09,-2.42,5,24.55
2022-06-03 10:43:40.473,3.43199707567692,0.15,-2.48,8,35.5
2022-06-03 10:43:40.587,3.54599766433239,-0.35,-6.84,7,70.3
2022-06-03 10:43:40.702,3.66099402308464,-0.4,-4.98,7,40.5
2022-06-03 10:43:40.817,3.7760004401207,-0.17,-2.93,5,35.08
2022-06-03 10:43:40.931,3.89000102877617,-0.09,-3.37,3,30.85
2022-06-03 10:43:41.042,4.00099419057369,-0.17,-4.29,1,28.24
2022-06-03 10:43:41.157,4.11600060760975,-0.27,-4.76,1,22.69
2022-06-03 10:43:41.271,4.23000119626522,-0.22,-3.96,3,21.25
2022-06-03 10:43:41.387,4.34599332511425,-0.5,-6.42,5,45.05
2022-06-03 10:43:41.500,4.45899814367294,0.09,-0.41,7,14.73
2022-06-03 10:43:41.615,4.57399450242519,0.21,-2,9,38.41
2022-06-03 10:43:41.730,4.68900091946125,-0.8,-10.72,8,88.19
2022-06-03 10:43:41.845,4.8039972782135,-1.02,-8.09,6,54.61
2022-06-03 10:43:41.959,4.91799786686897,-0.93,-6.4,3,40.95
2022-06-03 10:43:42.074,5.03299422562122,-0.9,-6.48,2,32.28
2022-06-03 10:43:42.189,5.14800064265728,-0.97,-7.26,1,35.88
2022-06-03 10:43:42.303,5.26200123131275,-0.79,-5.46,2,23.04
2022-06-03 10:43:42.419,5.37799336016178,-0.54,-4.21,4,26.03
2022-06-03 10:43:42.532,5.49099817872047,-1.07,-9.61,7,63.95
2022-06-03 10:43:42.647,5.60599453747272,-0.54,-3.05,10,32.45
2022-06-03 10:43:42.761,5.7199951261282,-0.48,-4.83,9,61.93
2022-06-03 10:43:42.873,5.8319941163063,-0.69,-6.81,7,59.67
2022-06-03 10:43:42.987,5.94599470496178,-0.79,-6.67,5,47.65
2022-06-03 10:43:43.102,6.06100112199783,-0.79,-6.23,2,38.26
2022-06-03 10:43:43.216,6.17500171065331,-0.69,-5.47,1,23.66
2022-06-03 10:43:43.331,6.28999806940556,-0.76,-6.47,1,29.31
2022-06-03 10:43:43.446,6.40499442815781,-0.8,-6.49,3,30.05
2022-06-03 10:43:43.561,6.52000084519386,-0.63,-4.91,7,32.81
2022-06-03 10:43:43.675,6.63400143384933,-1.08,-9.32,8,75.08
2022-06-03 10:43:43.790,6.74899779260159,-0.94,-6.16,8,49.43
2022-06-03 10:43:43.905,6.86399415135384,-0.07,0.2,7,20.46
2022-06-03 10:43:44.020,6.97900056838989,0.1,-2.25,5,36.78
2022-06-03 10:43:44.134,7.09300115704536,-0.17,-5.14,3,40.16
2022-06-03 10:43:44.249,7.20799751579762,-0.19,-4.1,2,24.71
2022-06-03 10:43:44.363,7.32199810445309,-0.15,-3.7,2,22.36
2022-06-03 10:43:44.478,7.43699446320534,-0.15,-3.91,3,25.75
2022-06-03 10:43:44.589,7.54799768328667,-0.19,-4.16,5,32.27
2022-06-03 10:43:44.703,7.66199827194214,0.59,2.27,7,9.12
2022-06-03 10:43:44.817,7.77599886059761,-0.19,-7.46,9,73.89
2022-06-03 10:43:44.933,7.89200104773045,-0.72,-8.32,7,67.68
2022-06-03 10:43:45.047,8.00600163638592,-0.53,-4.45,6,34.56
2022-06-03 10:43:45.162,8.12099799513817,-0.52,-5.25,3,42.29
2022-06-03 10:43:45.277,8.23599435389042,-0.46,-4.74,2,26.07
2022-06-03 10:43:45.392,8.35100077092648,-0.54,-5.66,1,30.93
2022-06-03 10:43:45.506,8.46500135958195,-0.28,-3.22,3,14.55
2022-06-03 10:43:45.621,8.5799977183342,-0.62,-7.09,5,48.8
2022-06-03 10:43:45.736,8.69499407708645,-0.35,-3.49,7,29.24
2022-06-03 10:43:45.850,8.80899466574192,-0.14,-2.92,7,39.27
2022-06-03 10:43:45.966,8.92499685287476,-0.64,-7.89,8,63.15
2022-06-03 10:43:46.079,9.03800167143345,-0.99,-8.56,7,63.34
2022-06-03 10:43:46.194,9.1529980301857,-0.82,-5.6,4,41.32
2022-06-03 10:43:46.309,9.26799438893795,-0.79,-6.12,0,35.28
2022-06-03 10:43:46.419,9.3780018389225,-0.86,-6.79,0,22.78
2022-06-03 10:43:46.534,9.49299819767475,-0.91,-6.91,2,28.35
2022-06-03 10:43:46.648,9.60699878633022,-0.9,-6.6,4,37.31
2022-06-03 10:43:46.763,9.72199514508247,-0.85,-6.27,6,44.23
2022-06-03 10:43:46.878,9.83700156211853,-0.81,-6.16,9,52.43
2022-06-03 10:43:46.993,9.95199792087078,0.09,0.91,9,24.55
2022-06-03 10:43:47.107,10.0659985095263,0.4,-0.49,7,37.61
2022-06-03 10:43:47.223,10.1820006966591,0.28,-2.78,5,38.1
2022-06-03 10:43:47.337,10.2960012853146,0.04,-4.24,3,35.92
2022-06-03 10:43:47.452,10.4109976440668,0.01,-3.4,1,23.23
2022-06-03 10:43:47.567,10.5259940028191,0.15,-2.18,2,11.44
2022-06-03 10:43:47.681,10.6399945914745,0.05,-3.56,3,27.88
2022-06-03 10:43:47.795,10.75399518013,0.56,0.96,5,7.65
2022-06-03 10:43:47.911,10.8699973672628,0.18,-4.31,8,48.83
2022-06-03 10:43:48.025,10.9839979559183,-0.1,-4.91,10,52.36
2022-06-03 10:43:48.135,11.0939953476191,0.55,1.52,7,25.49
2022-06-03 10:43:48.251,11.2099975347519,0.81,0.85,5,20.44
2022-06-03 10:43:48.365,11.3239981234074,0.71,-1.14,3,23.98
2022-06-03 10:43:48.480,11.4389944821596,0.71,-0.7,1,12.36
2022-06-03 10:43:48.594,11.5529950708151,0.82,0.2,1,1.37
2022-06-03 10:43:48.709,11.6680014878511,0.9,0.34,2,4.59
2022-06-03 10:43:48.823,11.7820020765066,0.37,-4.3,4,33.04
2022-06-03 10:43:48.938,11.8969984352589,0.89,2.25,7,3.42
2022-06-03 10:43:49.052,12.0109990239143,0.73,-1.37,9,42.7
2022-06-03 10:43:49.167,12.1259953826666,0.18,-5.01,7,63
2022-06-03 10:43:49.282,12.2410017997026,0.16,-2.82,7,30.74
2022-06-03 10:43:49.397,12.3559981584549,0.55,0.4,4,21.06
2022-06-03 10:43:49.513,12.4720003455877,0.47,-1.91,2,22.43
2022-06-03 10:43:49.626,12.5849951058626,0.27,-3.24,1,20.52
2022-06-03 10:43:49.737,12.6959983259439,0.23,-2.61,1,13.71
2022-06-03 10:43:49.852,12.8109946846962,0.21,-2.65,4,16.38
2022-06-03 10:43:49.966,12.9249952733517,0.13,-3.19,6,34.39
2022-06-03 10:43:50.081,13.0400016903877,0.48,-0.06,9,24.74
2022-06-03 10:43:50.195,13.1540022790432,0.74,0.53,8,38.85
2022-06-03 10:43:50.311,13.2699944078922,-0.02,-6.69,7,67.54
2022-06-03 10:43:50.425,13.3839949965477,-0.43,-6.69,6,49.25
2022-06-03 10:43:50.539,13.4979955852032,-0.51,-5.58,2,39.95
2022-06-03 10:43:50.654,13.6130020022392,-0.57,-5.7,1,24.4
2022-06-03 10:43:50.769,13.7279983609915,-0.54,-5.21,1,22.72
2022-06-03 10:43:50.884,13.8429947197437,-0.47,-4.8,3,23.2
2022-06-03 10:43:50.999,13.9580011367798,-0.18,-2.74,5,23.96
2022-06-03 10:43:51.113,14.0720017254353,-0.76,-8.64,7,64.12
2022-06-03 10:43:51.227,14.1860023140907,-0.23,-1.86,9,26.44
2022-06-03 10:43:51.343,14.3019944429398,0.14,-1.22,8,40.3
2022-06-03 10:43:51.453,14.4120018929243,0.11,-3.04,6,43.59
2022-06-03 10:43:51.567,14.5260024815798,-0.03,-4.08,3,38.69
2022-06-03 10:43:51.682,14.640998840332,-0.0499999999999999,-3.59,3,23.43
2022-06-03 10:43:51.797,14.7559951990843,0.0600000000000001,-2.64,0,23.85
2022-06-03 10:43:51.912,14.8710016161203,-0.01,-3.66,2,15.7
2022-06-03 10:43:52.027,14.9859979748726,-0.09,-3.99,4,30.3
2022-06-03 10:43:52.141,15.0999985635281,0.18,-1.52,7,25.46
2022-06-03 10:43:52.256,15.2149949222803,-0.4,-7.36,8,70.8
2022-06-03 10:43:52.371,15.3300013393164,-0.5,-5.63,8,49.33
2022-06-03 10:43:52.485,15.4440019279718,0.3,1.26,7,15.87
2022-06-03 10:43:52.599,15.5580025166273,0.75,1.45,4,19.52
2022-06-03 10:43:52.714,15.6729988753796,0.58,-1.97,2,23.74
2022-06-03 10:43:52.829,15.7879952341318,0.5,-1.81,2,12.88
2022-06-03 10:43:52.944,15.9030016511679,0.52,-1.29,1,13.48
2022-06-03 10:43:53.059,16.0179980099201,0.42,-2.26,3,14.3
2022-06-03 10:43:53.174,16.1329943686724,0.32,-2.55,6,26.12
2022-06-03 10:43:53.283,16.2419959902763,1.17,4.7,8,2.35
2022-06-03 10:43:53.398,16.3570024073124,0.38,-5.37,7,68.46
2022-06-03 10:43:53.513,16.4719987660646,-0.41,-8.28,7,58.89
2022-06-03 10:43:53.628,16.5869951248169,-0.21,-3.24,5,31.19
2022-06-03 10:43:53.742,16.7009957134724,-0.12,-3.42,2,29.65
2022-06-03 10:43:53.857,16.8160021305084,-0.17,-4.15,0,21.41
2022-06-03 10:43:53.972,16.9309984892607,-0.25,-4.58,1,17.11
2022-06-03 10:43:54.086,17.0449990779161,0,-2.25,3,12.96
2022-06-03 10:43:54.201,17.1599954366684,-0.28,-5.57,5,41.59
2022-06-03 10:43:54.316,17.2750018537045,-0.36,-5.03,7,42.69
2022-06-03 10:43:54.430,17.3890024423599,-0.09,-2.48,9,38.94
2022-06-03 10:43:54.545,17.5039988011122,-0.38,-6,8,68.19
2022-06-03 10:43:54.661,17.620000988245,-0.8,-8.09,6,60.84
2022-06-03 10:43:54.774,17.7329957485199,-0.88,-6.98,3,43.81
2022-06-03 10:43:54.889,17.848002165556,-0.78,-5.73,1,27.84
2022-06-03 10:43:54.999,17.9579995572567,-0.88,-7.02,1,30.66
2022-06-03 10:43:55.114,18.0729959160089,-0.88,-6.63,2,30.38
2022-06-03 10:43:55.229,18.188002333045,-0.7,-5.09,5,28.88
2022-06-03 10:43:55.343,18.3020029217005,-0.86,-7.2,7,55.8
2022-06-03 10:43:55.458,18.4169992804527,-1.16,-8.96,9,63.83
2022-06-03 10:43:55.573,18.531995639205,-0.32,-0.88,7,28.48
2022-06-03 10:43:55.688,18.647002056241,0.02,-1.76,7,31.77
2022-06-03 10:43:55.802,18.7610026448965,-0.2,-5.06,3,50.53
2022-06-03 10:43:55.918,18.8769947737455,-0.42,-5.8,2,28.23
2022-06-03 10:43:56.032,18.990995362401,-0.37,-4.48,1,21.68
2022-06-03 10:43:56.146,19.1049959510565,-0.26,-3.85,2,17.17
2022-06-03 10:43:56.261,19.2200023680925,-0.42,-5.57,3,33.34
2022-06-03 10:43:56.376,19.3349987268448,0.18,-0.01,6,7.68
2022-06-03 10:43:56.491,19.449995085597,-0.44,-7.69,8,67.38
2022-06-03 10:43:56.606,19.5650015026331,-0.63,-6.45,9,54.36
2022-06-03 10:43:56.716,19.6749988943338,-0.08,-1.23,7,32.22
2022-06-03 10:43:56.831,19.7899952530861,0.28,-0.74,5,26.26
2022-06-03 10:43:56.945,19.9039958417416,0.23,-2.73,2,30.14
2022-06-03 10:43:57.060,20.0190022587776,0.33,-1.69,2,10.66
2022-06-03 10:43:57.174,20.1330028474331,0.47,-0.94,1,12.58
2022-06-03 10:43:57.289,20.2479992061853,0.45,-1.76,3,12.89
2022-06-03 10:43:57.405,20.3640013933182,0.12,-4.32,6,36.19
2022-06-03 10:43:57.518,20.4769961535931,0.49,0.11,8,23.74
2022-06-03 10:43:57.634,20.5929983407259,0.16,-4.2,8,57.73
2022-06-03 10:43:57.748,20.7069989293814,-0.31,-6.49,7,56.49
2022-06-03 10:43:57.862,20.8209995180368,-0.03,-2.22,5,27.11
2022-06-03 10:43:57.977,20.9359958767891,0,-3.23,3,29.92
2022-06-03 10:43:58.092,21.0510022938251,-0.1,-4.12,1,26.44
2022-06-03 10:43:58.207,21.1659986525774,-0.28,-5.19,1,23.89
2022-06-03 10:43:58.321,21.2799992412329,-0.16,-3.39,2,16.66
2022-06-03 10:43:58.436,21.3949955999851,-0.33,-5.25,6,33.74
2022-06-03 10:43:58.546,21.5050030499697,-0.36,-4.79,7,48.35
2022-06-03 10:43:58.661,21.6199994087219,0.42,1.63,9,12.71
2022-06-03 10:43:58.776,21.7349957674742,-0.0399999999999999,-5.5,8,66
2022-06-03 10:43:58.891,21.8500021845102,-0.76,-9.27,6,67.4
2022-06-03 10:43:59.005,21.9640027731657,-0.86,-6.95,3,42.12
2022-06-03 10:43:59.120,22.078999131918,-0.92,-6.99,3,34.17
2022-06-03 10:43:59.235,22.1939954906702,-0.85,-6.16,1,34.81
2022-06-03 10:43:59.350,22.3090019077063,-0.75,-5.68,3,24.37
2022-06-03 10:43:59.464,22.4230024963617,-0.37,-3.04,5,25
2022-06-03 10:43:59.578,22.5370030850172,-0.76,-7.81,7,60.27
2022-06-03 10:43:59.692,22.6509936153889,-0.51,-4.14,9,38.93
2022-06-03 10:43:59.807,22.7660000324249,-0.08,-1.74,9,40.15
2022-06-03 10:43:59.924,22.8829979896545,-0.31,-5.51,7,60.49
2022-06-03 10:44:00.037,22.9960028082132,-0.46,-5.64,6,44.22
2022-06-03 10:44:00.153,23.1119949370623,-0.47,-5.13,3,40.25
2022-06-03 10:44:00.263,23.2220023870468,-0.4,-4.49,1,25.07
2022-06-03 10:44:00.377,23.3360029757023,-0.43,-5.08,1,23.47
2022-06-03 10:44:00.492,23.4509993344545,-0.55,-5.88,4,29.86
2022-06-03 10:44:00.607,23.5659956932068,-0.31,-3.43,7,32.19
2022-06-03 10:44:00.722,23.6810021102428,-0.85,-8.81,8,74.06
2022-06-03 10:44:00.836,23.7950026988983,-0.84,-6.41,9,51.37
2022-06-03 10:44:00.951,23.9099990576506,-0.02,0.2,7,25.14
2022-06-03 10:44:01.065,24.023999646306,0.25,-1.23,4,30.44
2022-06-03 10:44:01.180,24.1389960050583,0.0700000000000001,-3.86,6,30.09
2022-06-03 10:44:01.294,24.2529965937138,-0.1,-4.44,1,44.2
2022-06-03 10:44:01.409,24.3680030107498,-0.02,-3.06,1,9.84
2022-06-03 10:44:01.524,24.4829993695021,-0.01,-3.34,3,20.02
2022-06-03 10:44:01.639,24.5979957282543,-0.07,-3.88,5,32.72
2022-06-03 10:44:01.753,24.7119963169098,0.55,1.48,8,13.24
2022-06-03 10:44:01.868,24.8270027339458,-0.35,-8.61,9,83.45
2022-06-03 10:44:01.980,24.939001724124,-0.54,-6.13,9,53.91
2022-06-03 10:44:02.093,25.0519964843988,-0.16,-2.24,6,36.37
2022-06-03 10:44:02.208,25.1670029014349,0,-2.63,3,29.48
2022-06-03 10:44:02.322,25.2809934318066,0.0600000000000001,-2.82,1,19.62
2022-06-03 10:44:02.437,25.3959998488426,-0.02,-3.78,1,18.62
2022-06-03 10:44:02.552,25.5109962075949,0.23,-1.41,2,8.59
2022-06-03 10:44:02.667,25.6260026246309,-0.12,-5.27,4,36.2
2022-06-03 10:44:02.782,25.7409989833832,0.29,-0.51,7,16.7
2022-06-03 10:44:02.896,25.8549995720387,0.23,-2.7,9,46.7
2022-06-03 10:44:03.011,25.9699959307909,-0.24,-6.32,7,63.93
2022-06-03 10:44:03.126,26.085002347827,-0.52,-6.48,7,47.33
2022-06-03 10:44:03.241,26.1999987065792,-0.18,-2.46,3,29.67
2022-06-03 10:44:03.355,26.3139992952347,-0.13,-3.6,2,21.49
2022-06-03 10:44:03.469,26.4279998838902,-0.28,-5.01,0,27.9
2022-06-03 10:44:03.585,26.544002071023,-0.41,-5.43,1,20.06
2022-06-03 10:44:03.695,26.6539994627237,-0.34,-4.32,4,22.09
2022-06-03 10:44:03.809,26.7680000513792,-0.66,-7.12,7,51.76
2022-06-03 10:44:03.924,26.8829964101315,0,-0.47,9,22.81
2022-06-03 10:44:04.039,26.9980028271675,0.24,-1.38,9,42.8
2022-06-03 10:44:04.153,27.1119933575392,-0.8,-10.85,7,87.32
2022-06-03 10:44:04.269,27.227995544672,-1.02,-8.09,5,49.44
2022-06-03 10:44:04.383,27.3419961333275,-0.95,-6.5,3,37.75
2022-06-03 10:44:04.499,27.4579983204603,-1,-7.3,0,37.5
2022-06-03 10:44:04.613,27.5719989091158,-1.07,-7.6,1,26.53
2022-06-03 10:44:04.727,27.6859994977713,-0.9,-5.89,2,27.19
2022-06-03 10:44:04.842,27.8009958565235,-0.66,-4.73,4,27.97
2022-06-03 10:44:04.956,27.914996445179,-1.12,-9.52,8,62.73
2022-06-03 10:44:05.071,28.030002862215,-0.62,-3.39,10,39.23
2022-06-03 10:44:05.186,28.1449992209673,-0.66,-5.99,10,66.1
2022-06-03 10:44:05.301,28.2599955797195,-1.16,-9.83,7,78.25
2022-06-03 10:44:05.415,28.373996168375,-1.32,-8.86,4,53.36
2022-06-03 10:44:05.525,28.4839935600758,-1.12,-6.6,1,32.22
2022-06-03 10:44:05.641,28.5999957472086,-1.08,-7.12,0,27.71
2022-06-03 10:44:05.755,28.7139963358641,-1.17,-8.05,2,31.31
2022-06-03 10:44:05.870,28.8290027529001,-1.13,-7.34,4,38.62
2022-06-03 10:44:05.984,28.9429932832718,-1.12,-7.4,6,48.07
2022-06-03 10:44:06.099,29.0579997003078,-1.31,-9.05,8,60.35
2022-06-03 10:44:06.214,29.1729960590601,-0.58,-2.3,10,31.8
2022-06-03 10:44:06.328,29.2869966477156,-0.0599999999999999,-1.28,8,43.88
2022-06-03 10:44:06.443,29.4020030647516,-0.4,-6.27,5,58.56
2022-06-03 10:44:06.558,29.5169994235039,-0.76,-7.72,3,44.93
2022-06-03 10:44:06.672,29.6310000121593,-0.76,-6.16,1,30.32
2022-06-03 10:44:06.787,29.7459963709116,-0.68,-5.51,1,22.57
2022-06-03 10:44:06.902,29.8610027879477,-0.72,-6.13,2,29.75
2022-06-03 10:44:07.016,29.9749933183193,-0.31,-2.67,4,17.25
2022-06-03 10:44:07.131,30.0899997353554,-0.6,-6.86,9,51.88
2022-06-03 10:44:07.242,30.2010029554367,-0.83,-7.43,8,67.95
2022-06-03 10:44:07.356,30.3149934858084,-0.22,-1.49,8,25.93
2022-06-03 10:44:07.471,30.4299999028444,0,-2.34,8,40.18
